Time,TemperatureF,DewpointF,PressureIn,WindDirection,WindDirectionDegrees,WindSpeedMPH,WindSpeedGustMPH,Humidity,HourlyPrecipIn,Conditions,Clouds,dailyrainin,SoftwareType,DateUTC
2013-07-04 00:04:00,57.9,42.8,29.38,North,0,0.0,0.2,57,0.00,CLR,,0.00,WeatherDisplay:10.37,2013-07-04 06:04:00,
2013-07-04 00:09:00,57.9,42.8,29.38,SSW,202,0.0,0.0,57,0.00,CLR,,0.00,WeatherDisplay:10.37,2013-07-04 06:09:00,
2013-07-04 00:14:00,57.9,42.8,29.38,NNE,22,0.0,0.0,57,0.00,CLR,,0.00,WeatherDisplay:10.37,2013-07-04 06:14:00,
2013-07-04 00:19:00,57.9,42.8,29.38,WSW,248,0.0,0.2,57,0.00,CLR,,0.00,WeatherDisplay:10.37,2013-07-04 06:19:00,
2013-07-04 00:24:00,57.9,42.8,29.38,North,0,1.2,1.2,57,0.00,CLR,,0.00,WeatherDisplay:10.37,2013-07-04 06:24:00,
2013-07-04 00:29:00,57.9,42.8,29.38,NE,45,0.0,0.3,57,0.00,CLR,,0.00,WeatherDisplay:10.37,2013-07-04 06:29:00,
2013-07-04 00:34:00,57.9,42.8,29.38,ESE,112,2.3,2.3,57,0.00,CLR,,0.00,WeatherDisplay:10.37,2013-07-04 06:34:00,
2013-07-04 00:39:00,57.9,42.8,29.39,NNE,22,0.0,0.1,57,0.00,CLR,,0.00,WeatherDisplay:10.37,2013-07-04 06:39:00,
2013-07-04 00:44:00,57.9,42.8,29.39,ENE,68,2.3,2.3,57,0.00,CLR,,0.00,WeatherDisplay:10.37,2013-07-04 06:44:00,
2013-07-04 00:49:00,57.9,42.8,29.39,North,0,0.0,0.6,57,0.00,CLR,,0.00,WeatherDisplay:10.37,2013-07-04 06:49:00,
2013-07-04 00:54:00,57.9,42.8,29.39,North,0,0.0,0.5,57,0.00,CLR,,0.00,WeatherDisplay:10.37,2013-07-04 06:54:00,
2013-07-04 00:59:00,57.9,42.8,29.39,North,0,0.0,0.0,57,0.00,CLR,,0.00,WeatherDisplay:10.37,2013-07-04 06:59:00,
2013-07-04 01:04:00,57.9,42.8,29.39,North,0,0.0,0.0,57,0.00,CLR,,0.00,WeatherDisplay:10.37,2013-07-04 07:04:00,
2013-07-04 01:09:00,57.9,42.8,29.39,NE,45,0.0,0.0,57,0.00,CLR,,0.00,WeatherDisplay:10.37,2013-07-04 07:09:00,
2013-07-04 01:14:00,57.9,42.8,29.39,NE,45,0.0,0.0,57,0.00,CLR,,0.00,WeatherDisplay:10.37,2013-07-04 07:14:00,
2013-07-04 01:19:00,57.9,42.8,29.39,North,0,0.0,0.0,57,0.00,CLR,,0.00,WeatherDisplay:10.37,2013-07-04 07:19:00,
2013-07-04 01:24:00,57.9,42.8,29.39,North,0,0.0,0.0,57,0.00,CLR,,0.00,WeatherDisplay:10.37,2013-07-04 07:24:00,
2013-07-04 01:29:00,57.9,42.8,29.39,ENE,68,0.0,0.0,57,0.00,CLR,,0.00,WeatherDisplay:10.37,2013-07-04 07:29:00,
2013-07-04 01:34:00,57.9,42.8,29.39,North,0,0.0,0.0,57,0.00,CLR,,0.00,WeatherDisplay:10.37,2013-07-04 07:34:00,
2013-07-04 01:39:00,57.9,42.8,29.40,NE,45,0.0,0.0,57,0.00,CLR,,0.00,WeatherDisplay:10.37,2013-07-04 07:39:00,
2013-07-04 01:44:00,57.9,42.8,29.40,SSW,202,1.2,1.2,57,0.00,CLR,,0.00,WeatherDisplay:10.37,2013-07-04 07:44:00,
2013-07-04 01:49:00,57.9,42.8,29.40,NE,45,0.0,0.2,57,0.00,CLR,,0.00,WeatherDisplay:10.37,2013-07-04 07:49:00,
2013-07-04 01:54:00,57.9,42.8,29.40,ESE,112,0.0,0.0,57,0.00,CLR,,0.00,WeatherDisplay:10.37,2013-07-04 07:54:00,
2013-07-04 01:59:00,57.9,42.8,29.39,NNE,22,0.0,0.0,57,0.00,CLR,,0.00,WeatherDisplay:10.37,2013-07-04 07:59:00,
2013-07-04 02:04:00,57.9,42.8,29.39,NE,45,0.0,0.0,57,0.00,CLR,,0.00,WeatherDisplay:10.37,2013-07-04 08:04:00,
2013-07-04 02:09:00,57.9,42.8,29.39,SW,225,0.0,0.0,57,0.00,CLR,,0.00,WeatherDisplay:10.37,2013-07-04 08:09:00,
2013-07-04 02:14:00,57.9,42.8,29.39,WSW,248,2.3,2.3,57,0.00,CLR,,0.00,WeatherDisplay:10.37,2013-07-04 08:14:00,
2013-07-04 02:19:00,57.9,42.8,29.40,SE,135,0.0,0.6,57,0.00,CLR,,0.00,WeatherDisplay:10.37,2013-07-04 08:19:00,
2013-07-04 02:24:00,57.9,42.8,29.40,South,180,0.0,0.3,57,0.00,CLR,,0.00,WeatherDisplay:10.37,2013-07-04 08:24:00,
2013-07-04 02:29:00,57.9,42.8,29.40,SSE,158,0.0,0.0,57,0.00,CLR,,0.00,WeatherDisplay:10.37,2013-07-04 08:29:00,
2013-07-04 02:34:00,57.9,42.8,29.40,NE,45,0.0,0.0,57,0.00,CLR,,0.00,WeatherDisplay:10.37,2013-07-04 08:34:00,
2013-07-04 02:39:00,57.9,42.8,29.41,NE,45,0.0,0.0,57,0.00,CLR,,0.00,WeatherDisplay:10.37,2013-07-04 08:39:00,
2013-07-04 02:44:00,57.9,42.8,29.41,North,0,0.0,0.0,57,0.00,CLR,,0.00,WeatherDisplay:10.37,2013-07-04 08:44:00,
2013-07-04 02:49:00,57.9,42.8,29.41,North,0,0.0,0.0,57,0.00,CLR,,0.00,WeatherDisplay:10.37,2013-07-04 08:49:00,
2013-07-04 02:54:00,57.9,42.8,29.41,NNE,22,0.0,0.0,57,0.00,CLR,,0.00,WeatherDisplay:10.37,2013-07-04 08:54:00,
2013-07-04 02:59:00,57.9,42.8,29.41,ENE,68,0.0,0.0,57,0.00,CLR,,0.00,WeatherDisplay:10.37,2013-07-04 08:59:00,
2013-07-04 03:04:00,57.9,42.8,29.41,ENE,68,0.0,0.0,57,0.00,CLR,,0.00,WeatherDisplay:10.37,2013-07-04 09:04:00,
2013-07-04 03:09:00,57.9,42.8,29.41,ENE,68,0.0,0.0,57,0.00,CLR,,0.00,WeatherDisplay:10.37,2013-07-04 09:09:00,
2013-07-04 03:14:00,57.9,42.8,29.41,SW,225,0.0,0.0,57,0.00,CLR,,0.00,WeatherDisplay:10.37,2013-07-04 09:14:00,
2013-07-04 03:19:00,57.9,42.8,29.42,SSE,158,0.0,0.0,57,0.00,CLR,,0.00,WeatherDisplay:10.37,2013-07-04 09:19:00,
2013-07-04 03:24:00,57.9,42.8,29.42,SSW,202,0.0,0.0,57,0.00,CLR,,0.00,WeatherDisplay:10.37,2013-07-04 09:24:00,
2013-07-04 03:29:00,57.9,42.8,29.42,NNW,338,0.0,0.0,57,0.00,CLR,,0.00,WeatherDisplay:10.37,2013-07-04 09:29:00,
2013-07-04 03:34:00,57.9,42.8,29.42,North,0,0.0,0.0,57,0.00,CLR,,0.00,WeatherDisplay:10.37,2013-07-04 09:34:00,
2013-07-04 03:39:00,57.9,42.8,29.42,North,0,0.0,0.0,57,0.00,CLR,,0.00,WeatherDisplay:10.37,2013-07-04 09:39:00,
2013-07-04 03:44:00,57.9,42.8,29.42,NE,45,0.0,0.0,57,0.00,CLR,,0.00,WeatherDisplay:10.37,2013-07-04 09:44:00,
2013-07-04 03:49:00,57.9,42.8,29.42,NE,45,0.0,0.0,57,0.00,CLR,,0.00,WeatherDisplay:10.37,2013-07-04 09:49:00,
2013-07-04 03:54:00,57.9,42.8,29.42,North,0,0.0,0.0,57,0.00,CLR,,0.00,WeatherDisplay:10.37,2013-07-04 09:54:00,
2013-07-04 03:59:00,57.9,42.8,29.42,North,0,0.0,0.0,57,0.00,CLR,,0.00,WeatherDisplay:10.37,2013-07-04 09:59:00,
2013-07-04 04:04:00,57.9,42.8,29.42,NE,45,0.0,0.0,57,0.00,CLR,,0.00,WeatherDisplay:10.37,2013-07-04 10:04:00,
2013-07-04 04:09:00,57.9,42.8,29.42,NE,45,0.0,0.0,57,0.00,CLR,,0.00,WeatherDisplay:10.37,2013-07-04 10:09:00,
2013-07-04 04:14:00,57.9,42.8,29.42,NE,45,0.0,0.0,57,0.00,CLR,,0.00,WeatherDisplay:10.37,2013-07-04 10:14:00,
2013-07-04 04:19:00,57.9,42.8,29.43,NE,45,0.0,0.0,57,0.00,CLR,,0.00,WeatherDisplay:10.37,2013-07-04 10:19:00,
2013-07-04 04:24:00,57.9,42.8,29.43,SSW,202,0.0,0.0,57,0.00,CLR,,0.00,WeatherDisplay:10.37,2013-07-04 10:24:00,
2013-07-04 04:29:00,57.9,42.8,29.43,SE,135,0.0,0.0,57,0.00,CLR,,0.00,WeatherDisplay:10.37,2013-07-04 10:29:00,
2013-07-04 04:34:00,57.9,42.8,29.43,East,90,0.0,0.0,57,0.00,CLR,,0.00,WeatherDisplay:10.37,2013-07-04 10:34:00,
2013-07-04 04:39:00,57.9,42.8,29.42,SSW,202,0.0,0.0,57,0.00,CLR,,0.00,WeatherDisplay:10.37,2013-07-04 10:39:00,
2013-07-04 04:44:00,57.9,42.8,29.42,NW,315,0.0,0.0,57,0.00,CLR,,0.00,WeatherDisplay:10.37,2013-07-04 10:44:00,
2013-07-04 04:49:00,57.9,42.8,29.42,NE,45,0.0,0.0,57,0.00,CLR,,0.00,WeatherDisplay:10.37,2013-07-04 10:49:00,
2013-07-04 04:54:00,57.9,42.8,29.42,NNE,22,0.0,0.0,57,0.00,CLR,,0.00,WeatherDisplay:10.37,2013-07-04 10:54:00,
2013-07-04 04:59:00,57.9,42.8,29.43,North,0,0.0,0.0,57,0.00,CLR,,0.00,WeatherDisplay:10.37,2013-07-04 10:59:00,
2013-07-04 05:04:00,57.9,42.8,29.43,NE,45,0.0,0.0,57,0.00,CLR,,0.00,WeatherDisplay:10.37,2013-07-04 11:04:00,
2013-07-04 05:09:00,57.9,42.8,29.43,NE,45,0.0,0.0,57,0.00,CLR,,0.00,WeatherDisplay:10.37,2013-07-04 11:09:00,
2013-07-04 05:14:00,57.9,42.8,29.43,NE,45,0.0,0.0,57,0.00,CLR,,0.00,WeatherDisplay:10.37,2013-07-04 11:14:00,
2013-07-04 05:19:00,57.9,42.8,29.43,NNE,22,0.0,0.0,57,0.00,CLR,,0.00,WeatherDisplay:10.37,2013-07-04 11:19:00,
2013-07-04 05:24:00,57.9,42.8,29.43,North,0,0.0,0.0,57,0.00,CLR,,0.00,WeatherDisplay:10.37,2013-07-04 11:24:00,
2013-07-04 05:29:00,57.9,42.8,29.43,North,0,0.0,0.0,57,0.00,CLR,,0.00,WeatherDisplay:10.37,2013-07-04 11:29:00,
2013-07-04 05:34:00,57.9,42.8,29.43,SE,135,0.0,0.0,57,0.00,CLR,,0.00,WeatherDisplay:10.37,2013-07-04 11:34:00,
2013-07-04 05:39:00,57.9,42.8,29.44,SSE,158,0.0,0.0,57,0.00,CLR,,0.00,WeatherDisplay:10.37,2013-07-04 11:39:00,
2013-07-04 05:44:00,57.9,42.8,29.44,NNE,22,0.0,0.0,57,0.00,CLR,,0.00,WeatherDisplay:10.37,2013-07-04 11:44:00,
2013-07-04 05:49:00,57.9,42.8,29.44,North,0,0.0,0.0,57,0.00,CLR,,0.00,WeatherDisplay:10.37,2013-07-04 11:49:00,
2013-07-04 05:54:00,57.9,42.8,29.44,North,0,0.0,0.0,57,0.00,CLR,,0.00,WeatherDisplay:10.37,2013-07-04 11:54:00,
2013-07-04 05:59:00,57.9,42.8,29.44,ENE,68,0.0,0.0,57,0.00,CLR,,0.00,WeatherDisplay:10.37,2013-07-04 11:59:00,
2013-07-04 06:04:00,57.9,42.8,29.44,North,0,0.0,0.0,57,0.00,CLR,,0.00,WeatherDisplay:10.37,2013-07-04 12:04:00,
2013-07-04 06:09:00,57.9,42.8,29.44,North,0,0.0,0.0,57,0.00,CLR,,0.00,WeatherDisplay:10.37,2013-07-04 12:09:00,
2013-07-04 06:14:00,57.9,42.8,29.44,NE,45,0.0,0.0,57,0.00,CLR,,0.00,WeatherDisplay:10.37,2013-07-04 12:14:00,
2013-07-04 06:19:00,57.9,42.8,29.44,NE,45,0.0,0.0,57,0.00,CLR,,0.00,WeatherDisplay:10.37,2013-07-04 12:19:00,
2013-07-04 06:24:00,57.9,42.8,29.44,NE,45,0.0,0.0,57,0.00,CLR,,0.00,WeatherDisplay:10.37,2013-07-04 12:24:00,
2013-07-04 06:29:00,57.9,42.8,29.44,NNE,22,0.0,0.0,57,0.00,CLR,,0.00,WeatherDisplay:10.37,2013-07-04 12:29:00,
2013-07-04 06:34:00,57.9,42.8,29.44,NE,45,0.0,0.0,57,0.00,CLR,,0.00,WeatherDisplay:10.37,2013-07-04 12:34:00,
2013-07-04 06:39:00,57.9,42.8,29.44,NE,45,0.0,0.0,57,0.00,CLR,,0.00,WeatherDisplay:10.37,2013-07-04 12:39:00,
2013-07-04 06:44:00,57.9,42.8,29.44,North,0,0.0,0.0,57,0.00,CLR,,0.00,WeatherDisplay:10.37,2013-07-04 12:44:00,
2013-07-04 06:49:00,57.9,42.8,29.44,North,0,0.0,0.0,57,0.00,CLR,,0.00,WeatherDisplay:10.37,2013-07-04 12:49:00,
2013-07-04 06:54:00,57.9,42.8,29.44,North,0,0.0,0.0,57,0.00,CLR,,0.00,WeatherDisplay:10.37,2013-07-04 12:54:00,
2013-07-04 06:59:00,57.9,42.8,29.44,North,0,0.0,0.0,57,0.00,CLR,,0.00,WeatherDisplay:10.37,2013-07-04 12:59:00,
2013-07-04 07:04:00,57.9,42.8,29.44,NE,45,0.0,0.0,57,0.00,CLR,,0.00,WeatherDisplay:10.37,2013-07-04 13:04:00,
2013-07-04 07:09:00,57.9,42.8,29.44,North,0,0.0,0.0,57,0.00,CLR,,0.00,WeatherDisplay:10.37,2013-07-04 13:09:00,
2013-07-04 07:14:00,57.9,42.8,29.44,NNE,22,0.0,0.0,57,0.00,CLR,,0.00,WeatherDisplay:10.37,2013-07-04 13:14:00,
2013-07-04 07:19:00,57.9,42.8,29.44,NNE,22,0.0,0.0,57,0.00,CLR,,0.00,WeatherDisplay:10.37,2013-07-04 13:19:00,
2013-07-04 07:24:00,57.9,42.8,29.44,West,270,0.0,0.0,57,0.00,CLR,,0.00,WeatherDisplay:10.37,2013-07-04 13:24:00,
2013-07-04 07:29:00,57.9,42.8,29.44,NNW,338,0.0,0.0,57,0.00,CLR,,0.00,WeatherDisplay:10.37,2013-07-04 13:29:00,
2013-07-04 07:34:00,57.9,42.8,29.44,NNW,338,0.0,0.0,57,0.00,CLR,,0.00,WeatherDisplay:10.37,2013-07-04 13:34:00,
2013-07-04 07:39:00,57.9,42.8,29.42,NNW,338,0.0,0.0,57,0.00,CLR,,0.00,WeatherDisplay:10.37,2013-07-04 13:39:00,
2013-07-04 07:44:00,57.9,42.8,29.42,NW,315,0.0,0.0,57,0.00,CLR,,0.00,WeatherDisplay:10.37,2013-07-04 13:44:00,
2013-07-04 07:49:00,57.9,42.8,29.42,WNW,292,0.0,0.0,57,0.00,CLR,,0.00,WeatherDisplay:10.37,2013-07-04 13:49:00,
2013-07-04 07:54:00,57.9,42.8,29.42,West,270,0.0,0.0,57,0.00,CLR,,0.00,WeatherDisplay:10.37,2013-07-04 13:54:00,
2013-07-04 07:59:00,57.9,42.8,29.46,West,270,0.0,0.0,57,0.00,CLR,,0.00,WeatherDisplay:10.37,2013-07-04 13:59:00,
2013-07-04 08:04:00,57.9,42.8,29.46,West,270,0.0,0.0,57,0.00,CLR,,0.00,WeatherDisplay:10.37,2013-07-04 14:04:00,
2013-07-04 08:09:00,57.9,42.8,29.46,WNW,292,0.0,0.0,57,0.00,CLR,,0.00,WeatherDisplay:10.37,2013-07-04 14:09:00,
2013-07-04 08:14:00,57.9,42.8,29.46,WNW,292,0.0,0.0,57,0.00,CLR,,0.00,WeatherDisplay:10.37,2013-07-04 14:14:00,
2013-07-04 08:19:00,57.9,42.8,29.43,WNW,292,0.0,0.0,57,0.00,CLR,,0.00,WeatherDisplay:10.37,2013-07-04 14:19:00,
2013-07-04 08:24:00,57.9,42.8,29.43,NW,315,0.0,0.0,57,0.00,CLR,,0.00,WeatherDisplay:10.37,2013-07-04 14:24:00,
2013-07-04 08:29:00,57.9,42.8,29.43,West,270,0.0,0.0,57,0.00,CLR,,0.00,WeatherDisplay:10.37,2013-07-04 14:29:00,
2013-07-04 08:31:00,57.9,42.8,29.43,West,270,0.0,0.0,57,0.00,CLR,,0.00,WeatherDisplay:10.37,2013-07-04 14:31:00,
2013-07-04 08:36:00,57.9,42.8,29.43,West,270,0.0,0.0,57,0.00,CLR,,0.00,WeatherDisplay:10.37,2013-07-04 14:36:00,
2013-07-04 08:41:00,57.9,42.8,29.44,WSW,248,0.0,0.0,57,0.00,CLR,,0.00,WeatherDisplay:10.37,2013-07-04 14:41:00,
2013-07-04 08:46:00,57.9,42.8,29.44,West,270,0.0,0.0,57,0.00,CLR,,0.00,WeatherDisplay:10.37,2013-07-04 14:46:00,
2013-07-04 08:51:00,57.9,42.8,29.44,WNW,292,0.0,0.0,57,0.00,CLR,,0.00,WeatherDisplay:10.37,2013-07-04 14:51:00,
2013-07-04 08:56:00,57.9,42.8,29.44,South,180,0.0,0.0,57,0.00,CLR,,0.00,WeatherDisplay:10.37,2013-07-04 14:56:00,
2013-07-04 09:01:00,57.9,42.8,29.47,SW,225,0.0,0.0,57,0.00,CLR,,0.00,WeatherDisplay:10.37,2013-07-04 15:01:00,
2013-07-04 09:06:00,57.9,42.8,29.47,WNW,292,0.0,0.0,57,0.00,CLR,,0.00,WeatherDisplay:10.37,2013-07-04 15:06:00,
2013-07-04 09:11:00,57.9,42.8,29.47,WNW,292,0.0,0.0,57,0.00,CLR,,0.00,WeatherDisplay:10.37,2013-07-04 15:11:00,
2013-07-04 09:16:00,57.9,42.8,29.47,WNW,292,0.0,0.0,57,0.00,CLR,,0.00,WeatherDisplay:10.37,2013-07-04 15:16:00,
2013-07-04 09:21:00,57.9,42.8,29.45,WNW,292,0.0,0.0,57,0.00,CLR,,0.00,WeatherDisplay:10.37,2013-07-04 15:21:00,
2013-07-04 09:26:00,57.9,42.8,29.45,West,270,0.0,0.0,57,0.00,CLR,,0.00,WeatherDisplay:10.37,2013-07-04 15:26:00,
2013-07-04 09:31:00,57.9,42.8,29.45,West,270,0.0,0.0,57,0.00,CLR,,0.00,WeatherDisplay:10.37,2013-07-04 15:31:00,
2013-07-04 09:36:00,57.9,42.8,29.45,WSW,248,0.0,0.0,57,0.00,CLR,,0.00,WeatherDisplay:10.37,2013-07-04 15:36:00,
2013-07-04 09:41:00,57.9,42.8,29.46,West,270,0.0,0.0,57,0.00,CLR,,0.00,WeatherDisplay:10.37,2013-07-04 15:41:00,
2013-07-04 09:46:00,57.9,42.8,29.46,WNW,292,0.0,0.0,57,0.00,CLR,,0.00,WeatherDisplay:10.37,2013-07-04 15:46:00,
2013-07-04 09:51:00,57.9,42.8,29.46,SW,225,0.0,0.0,57,0.00,CLR,,0.00,WeatherDisplay:10.37,2013-07-04 15:51:00,
2013-07-04 09:56:00,57.9,42.8,29.46,ESE,112,2.3,2.3,57,0.00,CLR,,0.00,WeatherDisplay:10.37,2013-07-04 15:56:00,
2013-07-04 10:01:00,57.9,42.8,29.45,East,90,3.0,3.0,57,0.00,CLR,,0.00,WeatherDisplay:10.37,2013-07-04 16:01:00,
2013-07-04 10:06:00,57.9,42.8,29.45,NE,45,3.5,3.5,57,0.00,CLR,,0.00,WeatherDisplay:10.37,2013-07-04 16:06:00,
2013-07-04 10:11:00,57.9,42.8,29.45,WSW,248,0.0,1.3,57,0.00,CLR,,0.00,WeatherDisplay:10.37,2013-07-04 16:11:00,
2013-07-04 10:16:00,57.9,42.8,29.45,WNW,292,0.0,0.7,57,0.00,CLR,,0.00,WeatherDisplay:10.37,2013-07-04 16:16:00,
2013-07-04 10:21:00,57.9,42.8,29.44,ENE,68,0.0,0.1,57,0.00,CLR,,0.00,WeatherDisplay:10.37,2013-07-04 16:21:00,
2013-07-04 10:26:00,57.9,42.8,29.44,South,180,2.3,2.3,57,0.00,CLR,,0.00,WeatherDisplay:10.37,2013-07-04 16:26:00,
2013-07-04 10:31:00,57.9,42.8,29.44,WSW,248,0.0,0.8,57,0.00,CLR,,0.00,WeatherDisplay:10.37,2013-07-04 16:31:00,
2013-07-04 10:36:00,57.9,42.8,29.44,South,180,2.3,2.3,57,0.00,CLR,,0.00,WeatherDisplay:10.37,2013-07-04 16:36:00,
2013-07-04 10:41:00,57.9,42.8,29.44,WSW,248,0.0,0.7,57,0.00,CLR,,0.00,WeatherDisplay:10.37,2013-07-04 16:41:00,
2013-07-04 10:46:00,57.9,42.8,29.44,South,180,0.0,0.0,57,0.00,CLR,,0.00,WeatherDisplay:10.37,2013-07-04 16:46:00,
2013-07-04 10:51:00,57.9,42.8,29.44,WNW,292,0.0,0.0,57,0.00,CLR,,0.00,WeatherDisplay:10.37,2013-07-04 16:51:00,
2013-07-04 10:56:00,57.9,42.8,29.44,NW,315,0.0,0.0,57,0.00,CLR,,0.00,WeatherDisplay:10.37,2013-07-04 16:56:00,
2013-07-04 11:01:00,57.9,42.8,29.43,SE,135,3.1,3.1,57,0.00,CLR,,0.00,WeatherDisplay:10.37,2013-07-04 17:01:00,
2013-07-04 11:06:00,57.9,42.8,29.43,East,90,3.5,3.5,57,0.00,CLR,,0.00,WeatherDisplay:10.37,2013-07-04 17:06:00,
2013-07-04 11:11:00,57.9,42.8,29.43,North,0,2.3,2.3,57,0.00,CLR,,0.00,WeatherDisplay:10.37,2013-07-04 17:11:00,
2013-07-04 11:16:00,57.9,42.8,29.43,NW,315,0.0,0.9,57,0.00,CLR,,0.00,WeatherDisplay:10.37,2013-07-04 17:16:00,
2013-07-04 11:21:00,57.9,42.8,29.42,SSW,202,0.0,0.5,57,0.00,CLR,,0.00,WeatherDisplay:10.37,2013-07-04 17:21:00,
2013-07-04 11:26:00,57.9,42.8,29.42,WNW,292,4.6,4.6,57,0.00,CLR,,0.00,WeatherDisplay:10.37,2013-07-04 17:26:00,
2013-07-04 11:31:00,57.9,42.8,29.42,West,270,0.0,0.8,57,0.00,CLR,,0.00,WeatherDisplay:10.37,2013-07-04 17:31:00,
2013-07-04 11:36:00,57.9,42.8,29.42,WNW,292,0.0,0.0,57,0.00,CLR,,0.00,WeatherDisplay:10.37,2013-07-04 17:36:00,
2013-07-04 11:41:00,57.9,42.8,29.42,South,180,2.0,2.0,57,0.00,CLR,,0.00,WeatherDisplay:10.37,2013-07-04 17:41:00,
2013-07-04 11:46:00,57.9,42.8,29.42,NW,315,2.3,2.3,57,0.00,CLR,,0.00,WeatherDisplay:10.37,2013-07-04 17:46:00,
2013-07-04 11:51:00,57.9,42.8,29.42,South,180,0.0,0.8,57,0.00,CLR,,0.00,WeatherDisplay:10.37,2013-07-04 17:51:00,
2013-07-04 11:56:00,57.9,42.8,29.42,SW,225,2.3,2.3,57,0.00,CLR,,0.00,WeatherDisplay:10.37,2013-07-04 17:56:00,
2013-07-04 12:01:00,57.9,42.8,29.41,North,0,0.0,0.6,57,0.00,CLR,,0.00,WeatherDisplay:10.37,2013-07-04 18:01:00,
2013-07-04 12:06:00,57.9,42.8,29.41,North,0,0.0,0.6,57,0.00,CLR,,0.00,WeatherDisplay:10.37,2013-07-04 18:06:00,
2013-07-04 12:11:00,57.9,42.8,29.41,North,0,0.0,0.6,57,0.00,CLR,,0.00,WeatherDisplay:10.37,2013-07-04 18:11:00,
2013-07-04 12:16:00,57.9,42.8,29.41,NW,315,0.0,0.2,57,0.00,CLR,,0.00,WeatherDisplay:10.37,2013-07-04 18:16:00,
2013-07-04 12:21:00,57.9,42.8,29.40,SE,135,0.0,0.2,57,0.00,CLR,,0.00,WeatherDisplay:10.37,2013-07-04 18:21:00,
2013-07-04 12:26:00,57.9,42.8,29.40,South,180,0.0,0.0,57,0.00,CLR,,0.00,WeatherDisplay:10.37,2013-07-04 18:26:00,
2013-07-04 12:31:00,57.9,42.8,29.40,SSE,158,2.5,2.5,57,0.00,CLR,,0.00,WeatherDisplay:10.37,2013-07-04 18:31:00,
2013-07-04 12:36:00,57.9,42.8,29.40,SSW,202,0.0,0.3,57,0.00,CLR,,0.00,WeatherDisplay:10.37,2013-07-04 18:36:00,
2013-07-04 12:41:00,57.9,42.8,29.40,East,90,2.1,2.1,57,0.00,CLR,,0.00,WeatherDisplay:10.37,2013-07-04 18:41:00,
2013-07-04 12:46:00,57.9,42.8,29.40,SSW,202,0.0,0.3,57,0.00,CLR,,0.00,WeatherDisplay:10.37,2013-07-04 18:46:00,
2013-07-04 12:51:00,57.9,42.8,29.40,WSW,248,0.0,0.3,57,0.00,CLR,,0.00,WeatherDisplay:10.37,2013-07-04 18:51:00,
2013-07-04 12:56:00,57.9,42.8,29.40,WSW,248,0.0,0.0,57,0.00,CLR,,0.00,WeatherDisplay:10.37,2013-07-04 18:56:00,
2013-07-04 13:01:00,57.9,42.8,29.39,SW,225,0.0,0.0,57,0.00,CLR,,0.00,WeatherDisplay:10.37,2013-07-04 19:01:00,
2013-07-04 13:06:00,57.9,42.8,29.39,NW,315,0.0,0.0,57,0.00,CLR,,0.00,WeatherDisplay:10.37,2013-07-04 19:06:00,
2013-07-04 13:11:00,57.9,42.8,29.39,SW,225,0.0,0.0,57,0.00,CLR,,0.00,WeatherDisplay:10.37,2013-07-04 19:11:00,
2013-07-04 13:16:00,57.9,42.8,29.39,SW,225,1.2,0.0,57,0.00,CLR,,0.00,WeatherDisplay:10.37,2013-07-04 19:16:00,
2013-07-04 13:21:00,57.9,42.8,29.38,WSW,248,0.0,0.0,57,0.00,CLR,,0.00,WeatherDisplay:10.37,2013-07-04 19:21:00,
2013-07-04 13:26:00,57.9,42.8,29.38,SW,225,0.0,0.0,57,0.00,CLR,,0.00,WeatherDisplay:10.37,2013-07-04 19:26:00,
2013-07-04 13:31:00,57.9,42.8,29.38,SSE,158,0.0,0.0,57,0.00,CLR,,0.00,WeatherDisplay:10.37,2013-07-04 19:31:00,
2013-07-04 13:36:00,57.9,42.8,29.38,ENE,68,0.0,0.0,57,0.00,CLR,,0.00,WeatherDisplay:10.37,2013-07-04 19:36:00,
2013-07-04 13:41:00,57.9,42.8,29.37,West,270,0.0,0.0,57,0.00,CLR,,0.00,WeatherDisplay:10.37,2013-07-04 19:41:00,
2013-07-04 13:46:00,57.9,42.8,29.37,SW,225,0.0,0.0,57,0.00,CLR,,0.00,WeatherDisplay:10.37,2013-07-04 19:46:00,
2013-07-04 13:51:00,57.9,42.8,29.37,WSW,248,0.0,0.0,57,0.00,CLR,,0.00,WeatherDisplay:10.37,2013-07-04 19:51:00,
2013-07-04 13:56:00,57.9,42.8,29.37,WSW,248,0.0,0.0,57,0.00,CLR,,0.00,WeatherDisplay:10.37,2013-07-04 19:56:00,
2013-07-04 14:01:00,57.9,42.8,29.37,West,270,0.0,0.0,57,0.00,CLR,,0.00,WeatherDisplay:10.37,2013-07-04 20:01:00,
2013-07-04 14:06:00,57.9,42.8,29.37,West,270,0.0,0.0,57,0.00,CLR,,0.00,WeatherDisplay:10.37,2013-07-04 20:06:00,
2013-07-04 14:11:00,57.9,42.8,29.37,SE,135,1.6,1.6,57,0.00,CLR,,0.00,WeatherDisplay:10.37,2013-07-04 20:11:00,
2013-07-04 14:16:00,57.9,42.8,29.37,East,90,0.0,0.2,57,0.00,CLR,,0.00,WeatherDisplay:10.37,2013-07-04 20:16:00,
2013-07-04 14:21:00,57.9,42.8,29.36,SW,225,0.0,0.2,57,0.00,CLR,,0.00,WeatherDisplay:10.37,2013-07-04 20:21:00,
2013-07-04 14:26:00,57.9,42.8,29.36,WSW,248,0.0,0.0,57,0.00,CLR,,0.00,WeatherDisplay:10.37,2013-07-04 20:26:00,
2013-07-04 14:31:00,57.9,42.8,29.36,SSW,202,0.0,0.3,57,0.00,CLR,,0.00,WeatherDisplay:10.37,2013-07-04 20:31:00,
2013-07-04 14:36:00,57.9,42.8,29.36,WNW,292,0.0,0.6,57,0.00,CLR,,0.00,WeatherDisplay:10.37,2013-07-04 20:36:00,
2013-07-04 14:41:00,57.9,42.8,29.36,SE,135,4.6,4.6,57,0.00,CLR,,0.00,WeatherDisplay:10.37,2013-07-04 20:41:00,
2013-07-04 14:46:00,57.9,42.8,29.36,NNW,338,0.0,0.7,57,0.00,CLR,,0.00,WeatherDisplay:10.37,2013-07-04 20:46:00,
2013-07-04 14:51:00,57.9,42.8,29.36,NNW,338,0.0,0.5,57,0.00,CLR,,0.00,WeatherDisplay:10.37,2013-07-04 20:51:00,
2013-07-04 14:56:00,57.9,42.8,29.36,NW,315,0.0,0.0,57,0.00,CLR,,0.00,WeatherDisplay:10.37,2013-07-04 20:56:00,
2013-07-04 15:01:00,57.9,42.8,29.35,WNW,292,0.0,0.0,57,0.00,CLR,,0.00,WeatherDisplay:10.37,2013-07-04 21:01:00,
2013-07-04 15:06:00,57.9,42.8,29.35,WSW,248,0.0,0.0,57,0.00,CLR,,0.00,WeatherDisplay:10.37,2013-07-04 21:06:00,
2013-07-04 15:11:00,57.9,42.8,29.35,WNW,292,0.0,0.0,57,0.00,CLR,,0.00,WeatherDisplay:10.37,2013-07-04 21:11:00,
2013-07-04 15:16:00,57.9,42.8,29.35,West,270,0.0,0.0,57,0.00,CLR,,0.00,WeatherDisplay:10.37,2013-07-04 21:16:00,
2013-07-04 15:21:00,57.9,42.8,29.33,NNE,22,2.3,0.0,57,0.00,CLR,,0.00,WeatherDisplay:10.37,2013-07-04 21:21:00,
2013-07-04 15:26:00,57.9,42.8,29.33,NW,315,0.0,0.3,57,0.00,CLR,,0.00,WeatherDisplay:10.37,2013-07-04 21:26:00,
2013-07-04 15:31:00,57.9,42.8,29.33,North,0,0.0,0.3,57,0.00,CLR,,0.00,WeatherDisplay:10.37,2013-07-04 21:31:00,
2013-07-04 15:36:00,57.9,42.8,29.33,West,270,0.0,0.1,57,0.00,CLR,,0.00,WeatherDisplay:10.37,2013-07-04 21:36:00,
2013-07-04 15:41:00,57.9,42.8,29.32,SSW,202,0.0,0.0,57,0.00,CLR,,0.00,WeatherDisplay:10.37,2013-07-04 21:41:00,
2013-07-04 15:46:00,57.9,42.8,29.32,East,90,2.3,2.3,57,0.00,CLR,,0.00,WeatherDisplay:10.37,2013-07-04 21:46:00,
2013-07-04 15:51:00,57.9,42.8,29.32,SSW,202,0.0,0.3,57,0.00,CLR,,0.00,WeatherDisplay:10.37,2013-07-04 21:51:00,
2013-07-04 15:56:00,57.9,42.8,29.32,SSW,202,2.3,2.3,57,0.00,CLR,,0.00,WeatherDisplay:10.37,2013-07-04 21:56:00,
2013-07-04 16:01:00,57.9,42.8,29.31,SSW,202,5.8,5.8,57,0.00,CLR,,0.00,WeatherDisplay:10.37,2013-07-04 22:01:00,
2013-07-04 16:06:00,57.9,42.8,29.31,SW,225,4.6,4.6,57,0.00,CLR,,0.00,WeatherDisplay:10.37,2013-07-04 22:06:00,
2013-07-04 16:11:00,57.9,42.8,29.31,West,270,0.0,1.4,57,0.00,CLR,,0.00,WeatherDisplay:10.37,2013-07-04 22:11:00,
2013-07-04 16:16:00,57.9,42.8,29.31,WSW,248,0.0,0.2,57,0.00,CLR,,0.00,WeatherDisplay:10.37,2013-07-04 22:16:00,
2013-07-04 16:21:00,57.9,42.8,29.31,West,270,0.0,0.0,57,0.00,CLR,,0.00,WeatherDisplay:10.37,2013-07-04 22:21:00,
2013-07-04 16:26:00,57.9,42.8,29.31,SW,225,0.0,0.0,57,0.00,CLR,,0.00,WeatherDisplay:10.37,2013-07-04 22:26:00,
2013-07-04 16:31:00,57.9,42.8,29.31,NNE,22,2.3,2.3,57,0.00,CLR,,0.00,WeatherDisplay:10.37,2013-07-04 22:31:00,
2013-07-04 16:37:00,57.9,42.8,29.29,South,180,0.0,0.5,57,0.00,CLR,,0.00,WeatherDisplay:10.37,2013-07-04 22:37:00,
2013-07-04 16:42:00,57.9,42.8,29.29,SE,135,4.6,4.6,57,0.00,CLR,,0.00,WeatherDisplay:10.37,2013-07-04 22:42:00,
2013-07-04 16:47:00,57.9,42.8,29.29,SSW,202,3.5,3.5,57,0.00,CLR,,0.00,WeatherDisplay:10.37,2013-07-04 22:47:00,
2013-07-04 16:52:00,57.9,42.8,29.29,South,180,3.5,3.5,57,0.00,CLR,,0.00,WeatherDisplay:10.37,2013-07-04 22:52:00,
2013-07-04 16:57:00,57.9,42.8,29.28,WSW,248,3.5,3.5,57,0.00,CLR,,0.00,WeatherDisplay:10.37,2013-07-04 22:57:00,
2013-07-04 17:02:00,57.9,42.8,29.28,WNW,292,0.0,1.4,57,0.00,CLR,,0.00,WeatherDisplay:10.37,2013-07-04 23:02:00,
2013-07-04 17:07:00,57.9,42.8,29.28,North,0,0.0,0.2,57,0.00,CLR,,0.00,WeatherDisplay:10.37,2013-07-04 23:07:00,
2013-07-04 17:12:00,57.9,42.8,29.28,WNW,292,2.3,2.3,57,0.00,CLR,,0.00,WeatherDisplay:10.37,2013-07-04 23:12:00,
2013-07-04 17:17:00,57.9,42.8,29.27,WSW,248,0.0,1.0,57,0.00,CLR,,0.00,WeatherDisplay:10.37,2013-07-04 23:17:00,
2013-07-04 17:22:00,57.9,42.8,29.27,SW,225,0.0,0.1,57,0.00,CLR,,0.00,WeatherDisplay:10.37,2013-07-04 23:22:00,
2013-07-04 17:27:00,57.9,42.8,29.27,ENE,68,1.2,1.2,57,0.00,CLR,,0.00,WeatherDisplay:10.37,2013-07-04 23:27:00,
2013-07-04 17:32:00,57.9,42.8,29.27,WNW,292,2.3,2.3,57,0.00,CLR,,0.00,WeatherDisplay:10.37,2013-07-04 23:32:00,
2013-07-04 17:37:00,57.9,42.8,29.28,WSW,248,0.0,0.7,57,0.00,CLR,,0.00,WeatherDisplay:10.37,2013-07-04 23:37:00,
2013-07-04 17:42:00,57.9,42.8,29.28,West,270,0.0,0.1,57,0.00,CLR,,0.00,WeatherDisplay:10.37,2013-07-04 23:42:00,
2013-07-04 17:47:00,57.9,42.8,29.28,SW,225,2.3,2.3,57,0.00,CLR,,0.00,WeatherDisplay:10.37,2013-07-04 23:47:00,
2013-07-04 17:52:00,57.9,42.8,29.28,WSW,248,0.0,0.3,57,0.00,CLR,,0.00,WeatherDisplay:10.37,2013-07-04 23:52:00,
2013-07-04 17:57:00,57.9,42.8,29.27,West,270,0.0,0.1,57,0.00,CLR,,0.00,WeatherDisplay:10.37,2013-07-04 23:57:00,
2013-07-04 18:02:00,57.9,42.8,29.27,SW,225,0.0,0.1,57,0.00,CLR,,0.00,WeatherDisplay:10.37,2013-07-05 00:02:00,
2013-07-04 18:07:00,57.9,42.8,29.27,West,270,1.2,1.2,57,0.00,CLR,,0.00,WeatherDisplay:10.37,2013-07-05 00:07:00,
2013-07-04 18:12:00,57.9,42.8,29.27,WNW,292,0.0,0.7,57,0.00,CLR,,0.00,WeatherDisplay:10.37,2013-07-05 00:12:00,
2013-07-04 18:17:00,57.9,42.8,29.26,WSW,248,0.0,0.0,57,0.00,CLR,,0.00,WeatherDisplay:10.37,2013-07-05 00:17:00,
2013-07-04 18:22:00,57.9,42.8,29.26,WSW,248,0.0,0.0,57,0.00,CLR,,0.00,WeatherDisplay:10.37,2013-07-05 00:22:00,
2013-07-04 18:27:00,57.9,42.8,29.26,WSW,248,0.0,0.0,57,0.00,CLR,,0.00,WeatherDisplay:10.37,2013-07-05 00:27:00,
2013-07-04 18:32:00,57.9,42.8,29.26,WSW,248,0.0,0.0,57,0.00,CLR,,0.00,WeatherDisplay:10.37,2013-07-05 00:32:00,
2013-07-04 18:37:00,57.9,42.8,29.25,SSE,158,0.0,0.0,57,0.00,CLR,,0.00,WeatherDisplay:10.37,2013-07-05 00:37:00,
2013-07-04 18:42:00,57.9,42.8,29.25,North,0,0.0,0.1,57,0.00,CLR,,0.00,WeatherDisplay:10.37,2013-07-05 00:42:00,
2013-07-04 18:47:00,57.9,42.8,29.25,ENE,68,2.3,2.3,57,0.00,CLR,,0.00,WeatherDisplay:10.37,2013-07-05 00:47:00,
2013-07-04 18:52:00,57.9,42.8,29.25,North,0,0.0,1.2,57,0.00,CLR,,0.00,WeatherDisplay:10.37,2013-07-05 00:52:00,
2013-07-04 18:57:00,57.9,42.8,29.25,ESE,112,0.0,0.6,57,0.00,CLR,,0.00,WeatherDisplay:10.37,2013-07-05 00:57:00,
2013-07-04 19:02:00,57.9,42.8,29.25,SW,225,0.0,0.0,57,0.00,CLR,,0.00,WeatherDisplay:10.37,2013-07-05 01:02:00,
2013-07-04 19:08:00,57.9,42.8,29.25,SSW,202,0.0,0.2,57,0.00,CLR,,0.00,WeatherDisplay:10.37,2013-07-05 01:08:00,
2013-07-04 19:13:00,57.9,42.8,29.25,NW,315,0.0,0.2,57,0.00,CLR,,0.00,WeatherDisplay:10.37,2013-07-05 01:13:00,
2013-07-04 19:18:00,57.9,42.8,29.25,WSW,248,0.0,0.0,57,0.00,CLR,,0.00,WeatherDisplay:10.37,2013-07-05 01:18:00,
2013-07-04 19:23:00,57.9,42.8,29.25,SSW,202,4.6,4.6,57,0.00,CLR,,0.00,WeatherDisplay:10.37,2013-07-05 01:23:00,
2013-07-04 19:28:00,57.9,42.8,29.25,WNW,292,3.5,3.5,57,0.00,CLR,,0.00,WeatherDisplay:10.37,2013-07-05 01:28:00,
2013-07-04 19:33:00,57.9,42.8,29.25,SW,225,0.0,1.3,57,0.00,CLR,,0.00,WeatherDisplay:10.37,2013-07-05 01:33:00,
2013-07-04 19:38:00,57.9,42.8,29.21,SW,225,0.0,1.3,57,0.00,CLR,,0.00,WeatherDisplay:10.37,2013-07-05 01:38:00,
2013-07-04 19:43:00,57.9,42.8,29.21,SW,225,0.0,1.3,57,0.00,CLR,,0.00,WeatherDisplay:10.37,2013-07-05 01:43:00,
2013-07-04 19:48:00,57.9,42.8,29.21,SW,225,0.0,1.3,57,0.00,CLR,,0.00,WeatherDisplay:10.37,2013-07-05 01:48:00,
2013-07-04 19:53:00,57.9,42.8,29.21,SW,225,0.0,0.0,57,0.00,CLR,,0.00,WeatherDisplay:10.37,2013-07-05 01:53:00,
2013-07-04 19:58:00,57.9,42.8,29.20,SW,225,0.0,0.0,57,0.00,CLR,,0.00,WeatherDisplay:10.37,2013-07-05 01:58:00,
2013-07-04 20:03:00,57.9,42.8,29.20,SW,225,0.0,0.0,57,0.00,CLR,,0.00,WeatherDisplay:10.37,2013-07-05 02:03:00,
2013-07-04 20:08:00,57.9,42.8,29.20,SW,225,0.0,0.0,57,0.00,CLR,,0.00,WeatherDisplay:10.37,2013-07-05 02:08:00,
2013-07-04 20:13:00,57.9,42.8,29.20,SW,225,0.0,0.0,57,0.00,CLR,,0.00,WeatherDisplay:10.37,2013-07-05 02:13:00,
2013-07-04 20:18:00,57.9,42.8,29.20,SW,225,0.0,0.0,57,0.00,CLR,,0.00,WeatherDisplay:10.37,2013-07-05 02:18:00,
2013-07-04 20:23:00,57.9,42.8,29.20,SW,225,0.0,0.0,57,0.00,CLR,,0.00,WeatherDisplay:10.37,2013-07-05 02:23:00,
2013-07-04 20:28:00,57.9,42.8,29.20,SW,225,0.0,0.0,57,0.00,CLR,,0.00,WeatherDisplay:10.37,2013-07-05 02:28:00,
2013-07-04 20:33:00,57.9,42.8,29.20,SW,225,0.0,0.0,57,0.00,CLR,,0.00,WeatherDisplay:10.37,2013-07-05 02:33:00,
2013-07-04 20:38:00,57.9,42.8,29.21,SW,225,0.0,0.0,57,0.00,CLR,,0.00,WeatherDisplay:10.37,2013-07-05 02:38:00,
2013-07-04 20:43:00,57.9,42.8,29.21,SW,225,0.0,0.0,57,0.00,CLR,,0.00,WeatherDisplay:10.37,2013-07-05 02:43:00,
2013-07-04 20:48:00,57.9,42.8,29.21,SW,225,0.0,0.0,57,0.00,CLR,,0.00,WeatherDisplay:10.37,2013-07-05 02:48:00,
2013-07-04 20:53:00,57.9,42.8,29.21,SW,225,0.0,0.0,57,0.00,CLR,,0.00,WeatherDisplay:10.37,2013-07-05 02:53:00,
2013-07-04 20:58:00,57.9,42.8,29.21,SW,225,0.0,0.0,57,0.00,CLR,,0.00,WeatherDisplay:10.37,2013-07-05 02:58:00,
2013-07-04 21:03:00,57.9,42.8,29.21,SW,225,0.0,0.0,57,0.00,CLR,,0.00,WeatherDisplay:10.37,2013-07-05 03:03:00,
2013-07-04 21:08:00,57.9,42.8,29.21,SW,225,0.0,0.0,57,0.00,CLR,,0.00,WeatherDisplay:10.37,2013-07-05 03:08:00,
2013-07-04 21:13:00,57.9,42.8,29.21,SW,225,0.0,0.0,57,0.00,CLR,,0.00,WeatherDisplay:10.37,2013-07-05 03:13:00,
2013-07-04 21:18:00,57.9,42.8,29.22,SW,225,0.0,0.0,57,0.00,CLR,,0.00,WeatherDisplay:10.37,2013-07-05 03:18:00,
2013-07-04 21:23:00,57.9,42.8,29.22,SW,225,0.0,0.0,57,0.00,CLR,,0.00,WeatherDisplay:10.37,2013-07-05 03:23:00,
2013-07-04 21:28:00,57.9,42.8,29.22,SW,225,0.0,0.0,57,0.00,CLR,,0.00,WeatherDisplay:10.37,2013-07-05 03:28:00,
2013-07-04 21:33:00,57.9,42.8,29.22,SW,225,0.0,0.0,57,0.00,CLR,,0.00,WeatherDisplay:10.37,2013-07-05 03:33:00,
2013-07-04 21:38:00,57.9,42.8,29.23,SW,225,0.0,0.0,57,0.00,CLR,,0.00,WeatherDisplay:10.37,2013-07-05 03:38:00,
2013-07-04 21:43:00,57.9,42.8,29.23,SW,225,0.0,0.0,57,0.00,CLR,,0.00,WeatherDisplay:10.37,2013-07-05 03:43:00,
2013-07-04 21:48:00,57.9,42.8,29.23,SW,225,0.0,0.0,57,0.00,CLR,,0.00,WeatherDisplay:10.37,2013-07-05 03:48:00,
2013-07-04 21:53:00,57.9,42.8,29.23,SW,225,0.0,0.0,57,0.00,CLR,,0.00,WeatherDisplay:10.37,2013-07-05 03:53:00,
2013-07-04 21:58:00,57.9,42.8,29.23,SW,225,0.0,0.0,57,0.00,CLR,,0.00,WeatherDisplay:10.37,2013-07-05 03:58:00,
2013-07-04 22:01:00,57.9,42.8,29.23,SW,225,0.0,0.0,57,0.00,CLR,,0.00,WeatherDisplay:10.37,2013-07-05 04:01:00,
2013-07-04 22:02:00,57.9,42.8,29.23,SW,225,0.0,0.0,57,0.00,CLR,,0.00,WeatherDisplay:10.37,2013-07-05 04:02:00,
2013-07-04 22:04:00,57.9,42.8,29.23,SW,225,0.0,0.0,57,0.00,CLR,,0.00,WeatherDisplay:10.37,2013-07-05 04:04:00,
2013-07-04 22:09:00,57.9,42.8,29.23,SW,225,0.0,0.0,57,0.00,CLR,,0.00,WeatherDisplay:10.37,2013-07-05 04:09:00,
2013-07-04 22:14:00,57.9,42.8,29.23,SW,225,0.0,0.0,57,0.00,CLR,,0.00,WeatherDisplay:10.37,2013-07-05 04:14:00,
2013-07-04 22:19:00,57.9,42.8,29.24,SW,225,0.0,0.0,57,0.00,CLR,,0.00,WeatherDisplay:10.37,2013-07-05 04:19:00,
2013-07-04 22:24:00,57.9,42.8,29.24,SW,225,0.0,0.0,57,0.00,CLR,,0.00,WeatherDisplay:10.37,2013-07-05 04:24:00,
2013-07-04 22:29:00,57.9,42.8,29.24,SSW,202,0.0,0.0,57,0.00,CLR,,0.00,WeatherDisplay:10.37,2013-07-05 04:29:00,
2013-07-04 22:34:00,57.9,42.8,29.24,NNE,22,0.0,0.0,57,0.00,CLR,,0.00,WeatherDisplay:10.37,2013-07-05 04:34:00,
2013-07-04 22:39:00,57.9,42.8,29.24,NE,45,0.0,0.0,57,0.00,CLR,,0.00,WeatherDisplay:10.37,2013-07-05 04:39:00,
2013-07-04 22:44:00,57.9,42.8,29.24,East,90,0.0,0.0,57,0.00,CLR,,0.00,WeatherDisplay:10.37,2013-07-05 04:44:00,
2013-07-04 22:49:00,57.9,42.8,29.24,NE,45,0.0,0.0,57,0.00,CLR,,0.00,WeatherDisplay:10.37,2013-07-05 04:49:00,
2013-07-04 22:54:00,57.9,42.8,29.24,North,0,0.0,0.0,57,0.00,CLR,,0.00,WeatherDisplay:10.37,2013-07-05 04:54:00,
2013-07-04 22:59:00,57.9,42.8,29.24,North,0,0.0,0.0,57,0.00,CLR,,0.00,WeatherDisplay:10.37,2013-07-05 04:59:00,
2013-07-04 23:04:00,57.9,42.8,29.24,ENE,68,0.0,0.0,57,0.00,CLR,,0.00,WeatherDisplay:10.37,2013-07-05 05:04:00,
2013-07-04 23:09:00,57.9,42.8,29.24,SSE,158,0.0,0.0,57,0.00,CLR,,0.00,WeatherDisplay:10.37,2013-07-05 05:09:00,
2013-07-04 23:14:00,57.9,42.8,29.24,NE,45,0.0,0.0,57,0.00,CLR,,0.00,WeatherDisplay:10.37,2013-07-05 05:14:00,
2013-07-04 23:19:00,57.9,42.8,29.24,NE,45,0.0,0.0,57,0.00,CLR,,0.00,WeatherDisplay:10.37,2013-07-05 05:19:00,
2013-07-04 23:24:00,57.9,42.8,29.24,NE,45,0.0,0.0,57,0.00,CLR,,0.00,WeatherDisplay:10.37,2013-07-05 05:24:00,
2013-07-04 23:29:00,57.9,42.8,29.24,North,0,0.0,0.0,57,0.00,CLR,,0.00,WeatherDisplay:10.37,2013-07-05 05:29:00,
2013-07-04 23:34:00,57.9,42.8,29.24,NNE,22,0.0,0.0,57,0.00,CLR,,0.00,WeatherDisplay:10.37,2013-07-05 05:34:00,
2013-07-04 23:39:00,57.9,42.8,29.24,East,90,0.0,0.0,57,0.00,CLR,,0.00,WeatherDisplay:10.37,2013-07-05 05:39:00,
2013-07-04 23:44:00,57.9,42.8,29.24,NE,45,0.0,0.0,57,0.00,CLR,,0.00,WeatherDisplay:10.37,2013-07-05 05:44:00,
2013-07-04 23:49:00,57.9,42.8,29.24,North,0,0.0,0.0,57,0.00,CLR,,0.00,WeatherDisplay:10.37,2013-07-05 05:49:00,
2013-07-04 23:54:00,57.9,42.8,29.24,ENE,68,0.0,0.0,57,0.00,CLR,,0.00,WeatherDisplay:10.37,2013-07-05 05:54:00,
2013-07-04 23:59:00,57.9,42.8,29.25,NNW,338,0.0,0.3,57,0.00,CLR,,0.00,WeatherDisplay:10.37,2013-07-05 05:59:00,